Location: Wapato
(46.4478°N, 120.4212°W)
Time: 17:54:39
(UTC+00:00)

S-56A Canister/Altair - Pass Details

Date: 14 May 2026
Orbit: 632 x 2484 km, 38.9° (Epoch: 9 June)

Event Time Altitude Azimuth Distance (km) Brightness Sun altitude
Rises 04:53:23 0° 226° (SW) 2,971 10.6 -12.7°
Reaches altitude 10° 04:56:08 10° 210° (SSW) 2,008 9.5 -13.1°
Maximum altitude 04:59:32 22° 159° (SSE) 1,404 8.3 -13.5°
Enters shadow 05:00:15 21° 145° (SE) 1,447 8.3 -13.6°
